Year,Month,Day,Hour,Minute,Value (Times are PST for temperature in C)
2018,08,20,00,00,14.70
2018,08,20,00,01,14.70
2018,08,20,00,02,14.70
2018,08,20,00,03,14.70
2018,08,20,00,04,14.80
2018,08,20,00,05,14.80
2018,08,20,00,06,14.80
2018,08,20,00,07,14.80
2018,08,20,00,08,14.80
2018,08,20,00,09,14.80
2018,08,20,00,10,14.80
2018,08,20,00,11,14.80
2018,08,20,00,12,14.80
2018,08,20,00,13,14.80
2018,08,20,00,14,14.80
2018,08,20,00,15,14.80
2018,08,20,00,16,14.80
2018,08,20,00,17,14.80
2018,08,20,00,18,14.80
2018,08,20,00,19,14.80
2018,08,20,00,20,14.80
2018,08,20,00,21,14.80
2018,08,20,00,22,14.70
2018,08,20,00,23,14.70
2018,08,20,00,24,14.70
2018,08,20,00,25,14.70
2018,08,20,00,26,14.70
2018,08,20,00,27,14.80
2018,08,20,00,28,14.80
2018,08,20,00,29,14.80
2018,08,20,00,30,14.80
2018,08,20,00,31,14.80
2018,08,20,00,32,14.80
2018,08,20,00,33,14.80
2018,08,20,00,34,14.80
2018,08,20,00,35,14.80
2018,08,20,00,36,14.80
2018,08,20,00,37,14.80
2018,08,20,00,38,14.80
2018,08,20,00,39,14.80
2018,08,20,00,40,14.80
2018,08,20,00,41,14.80
2018,08,20,00,42,14.80
2018,08,20,00,43,14.80
2018,08,20,00,44,14.70
2018,08,20,00,45,14.70
2018,08,20,00,46,14.70
2018,08,20,00,47,14.70
2018,08,20,00,48,14.70
2018,08,20,00,49,14.70
2018,08,20,00,50,14.70
2018,08,20,00,51,14.70
2018,08,20,00,52,14.70
2018,08,20,00,53,14.70
2018,08,20,00,54,14.70
2018,08,20,00,55,14.60
2018,08,20,00,56,14.60
2018,08,20,00,57,14.60
2018,08,20,00,58,14.60
2018,08,20,00,59,14.60
2018,08,20,01,00,14.60
2018,08,20,01,01,14.60
2018,08,20,01,02,14.50
2018,08,20,01,03,14.50
2018,08,20,01,04,14.50
2018,08,20,01,05,14.50
2018,08,20,01,06,14.50
2018,08,20,01,07,14.50
2018,08,20,01,08,14.40
2018,08,20,01,09,14.40
2018,08,20,01,10,14.40
2018,08,20,01,11,14.40
2018,08,20,01,12,14.40
2018,08,20,01,13,14.40
2018,08,20,01,14,14.30
2018,08,20,01,15,14.30
2018,08,20,01,16,14.30
2018,08,20,01,17,14.30
2018,08,20,01,18,14.30
2018,08,20,01,19,14.30
2018,08,20,01,20,14.30
2018,08,20,01,21,14.30
2018,08,20,01,22,14.30
2018,08,20,01,23,14.20
2018,08,20,01,24,14.20
2018,08,20,01,25,14.20
2018,08,20,01,26,14.20
2018,08,20,01,27,14.20
2018,08,20,01,28,14.20
2018,08,20,01,29,14.20
2018,08,20,01,30,14.20
2018,08,20,01,31,14.20
2018,08,20,01,32,14.20
2018,08,20,01,33,14.10
2018,08,20,01,34,14.10
2018,08,20,01,35,14.10
2018,08,20,01,36,14.10
2018,08,20,01,37,14.10
2018,08,20,01,38,14.10
2018,08,20,01,39,14.00
2018,08,20,01,40,14.00
2018,08,20,01,41,14.00
2018,08,20,01,42,14.00
2018,08,20,01,43,13.90
2018,08,20,01,44,13.90
2018,08,20,01,45,13.90
2018,08,20,01,46,13.90
2018,08,20,01,47,13.90
2018,08,20,01,48,13.80
2018,08,20,01,49,13.80
2018,08,20,01,50,13.80
2018,08,20,01,51,13.80
2018,08,20,01,52,13.80
2018,08,20,01,53,13.70
2018,08,20,01,54,13.70
2018,08,20,01,55,13.70
2018,08,20,01,56,13.70
2018,08,20,01,57,13.70
2018,08,20,01,58,13.70
2018,08,20,01,59,13.60
2018,08,20,02,00,13.60
2018,08,20,02,01,13.60
2018,08,20,02,02,13.60
2018,08,20,02,03,13.60
2018,08,20,02,04,13.60
2018,08,20,02,05,13.60
2018,08,20,02,06,13.60
2018,08,20,02,07,13.60
2018,08,20,02,08,13.60
2018,08,20,02,09,13.60
2018,08,20,02,10,13.60
2018,08,20,02,11,13.60
2018,08,20,02,12,13.60
2018,08,20,02,13,13.50
2018,08,20,02,14,13.50
2018,08,20,02,15,13.50
2018,08,20,02,16,13.50
2018,08,20,02,17,13.50
2018,08,20,02,18,13.40
2018,08,20,02,19,13.40
2018,08,20,02,20,13.40
2018,08,20,02,21,13.40
2018,08,20,02,22,13.40
2018,08,20,02,23,13.40
2018,08,20,02,24,13.40
2018,08,20,02,25,13.40
2018,08,20,02,26,13.30
2018,08,20,02,27,13.30
2018,08,20,02,28,13.30
2018,08,20,02,29,13.30
2018,08,20,02,30,13.30
2018,08,20,02,31,13.30
2018,08,20,02,32,13.30
2018,08,20,02,33,13.20
2018,08,20,02,34,13.20
2018,08,20,02,35,13.20
2018,08,20,02,36,13.20
2018,08,20,02,37,13.20
2018,08,20,02,38,13.20
2018,08,20,02,39,13.20
2018,08,20,02,40,13.10
2018,08,20,02,41,13.10
2018,08,20,02,42,13.10
2018,08,20,02,43,13.10
2018,08,20,02,44,13.10
2018,08,20,02,45,13.10
2018,08,20,02,46,13.10
2018,08,20,02,47,13.10
2018,08,20,02,48,13.10
2018,08,20,02,49,13.10
2018,08,20,02,50,13.10
2018,08,20,02,51,13.10
2018,08,20,02,52,13.10
2018,08,20,02,53,13.10
2018,08,20,02,54,13.10
2018,08,20,02,55,13.10
2018,08,20,02,56,13.10
2018,08,20,02,57,13.00
2018,08,20,02,58,13.00
2018,08,20,02,59,13.00
2018,08,20,03,00,13.00
2018,08,20,03,01,12.90
2018,08,20,03,02,12.90
2018,08,20,03,03,12.90
2018,08,20,03,04,12.90
2018,08,20,03,05,12.90
2018,08,20,03,06,12.90
2018,08,20,03,07,12.90
2018,08,20,03,08,12.80
2018,08,20,03,09,12.80
2018,08,20,03,10,12.80
2018,08,20,03,11,12.80
2018,08,20,03,12,12.80
2018,08,20,03,13,12.80
2018,08,20,03,14,12.80
2018,08,20,03,15,12.80
2018,08,20,03,16,12.80
2018,08,20,03,17,12.90
2018,08,20,03,18,12.90
2018,08,20,03,19,12.90
2018,08,20,03,20,12.90
2018,08,20,03,21,12.90
2018,08,20,03,22,12.90
2018,08,20,03,23,12.90
2018,08,20,03,24,12.80
2018,08,20,03,25,12.80
2018,08,20,03,26,12.80
2018,08,20,03,27,12.80
2018,08,20,03,28,12.80
2018,08,20,03,29,12.80
2018,08,20,03,30,12.80
2018,08,20,03,31,12.80
2018,08,20,03,32,12.80
2018,08,20,03,33,12.70
2018,08,20,03,34,12.70
2018,08,20,03,35,12.70
2018,08,20,03,36,12.70
2018,08,20,03,37,12.70
2018,08,20,03,38,12.70
2018,08,20,03,39,12.70
2018,08,20,03,40,12.70
2018,08,20,03,41,12.70
2018,08,20,03,42,12.70
2018,08,20,03,43,12.70
2018,08,20,03,44,12.60
2018,08,20,03,45,12.60
2018,08,20,03,46,12.60
2018,08,20,03,47,12.60
2018,08,20,03,48,12.60
2018,08,20,03,49,12.60
2018,08,20,03,50,12.60
2018,08,20,03,51,12.60
2018,08,20,03,52,12.60
2018,08,20,03,53,12.60
2018,08,20,03,54,12.60
2018,08,20,03,55,12.60
2018,08,20,03,56,12.60
2018,08,20,03,57,12.60
2018,08,20,03,58,12.60
2018,08,20,03,59,12.60
2018,08,20,04,00,12.60
2018,08,20,04,01,12.60
2018,08,20,04,02,12.60
2018,08,20,04,03,12.60
2018,08,20,04,04,12.60
2018,08,20,04,05,12.60
2018,08,20,04,06,12.50
2018,08,20,04,07,12.50
2018,08,20,04,08,12.50
2018,08,20,04,09,12.50
2018,08,20,04,10,12.40
2018,08,20,04,11,12.40
2018,08,20,04,12,12.40
2018,08,20,04,13,12.40
2018,08,20,04,14,12.40
2018,08,20,04,15,12.40
2018,08,20,04,16,12.40
2018,08,20,04,17,12.40
2018,08,20,04,18,12.40
2018,08,20,04,19,12.40
2018,08,20,04,20,12.40
2018,08,20,04,21,12.40
2018,08,20,04,22,12.40
2018,08,20,04,23,12.40
2018,08,20,04,24,12.40
2018,08,20,04,25,12.40
2018,08,20,04,26,12.30
2018,08,20,04,27,12.30
2018,08,20,04,28,12.30
2018,08,20,04,29,12.30
2018,08,20,04,30,12.30
2018,08,20,04,31,12.30
2018,08,20,04,32,12.30
2018,08,20,04,33,12.30
2018,08,20,04,34,12.30
2018,08,20,04,35,12.30
2018,08,20,04,36,12.30
2018,08,20,04,37,12.30
2018,08,20,04,38,12.30
2018,08,20,04,39,12.30
2018,08,20,04,40,12.20
2018,08,20,04,41,12.20
2018,08,20,04,42,12.20
2018,08,20,04,43,12.20
2018,08,20,04,44,12.20
2018,08,20,04,45,12.20
2018,08,20,04,46,12.20
2018,08,20,04,47,12.20
2018,08,20,04,48,12.20
2018,08,20,04,49,12.20
2018,08,20,04,50,12.20
2018,08,20,04,51,12.20
2018,08,20,04,52,12.10
2018,08,20,04,53,12.20
2018,08,20,04,54,12.10
2018,08,20,04,55,12.10
2018,08,20,04,56,12.10
2018,08,20,04,57,12.10
2018,08,20,04,58,12.10
2018,08,20,04,59,12.10
2018,08,20,05,00,12.10
2018,08,20,05,01,12.10
2018,08,20,05,02,12.10
2018,08,20,05,03,12.00
2018,08,20,05,04,12.00
2018,08,20,05,05,12.00
2018,08,20,05,06,12.00
2018,08,20,05,07,11.90
2018,08,20,05,08,11.90
2018,08,20,05,09,11.90
2018,08,20,05,10,11.90
2018,08,20,05,11,11.90
2018,08,20,05,12,11.90
2018,08,20,05,13,11.90
2018,08,20,05,14,11.90
2018,08,20,05,15,11.90
2018,08,20,05,16,11.90
2018,08,20,05,17,11.80
2018,08,20,05,18,11.80
2018,08,20,05,19,11.80
2018,08,20,05,20,11.80
2018,08,20,05,21,11.80
2018,08,20,05,22,11.80
2018,08,20,05,23,11.80
2018,08,20,05,24,11.80
2018,08,20,05,25,11.80
2018,08,20,05,26,11.80
2018,08,20,05,27,11.80
2018,08,20,05,28,11.70
2018,08,20,05,29,11.70
2018,08,20,05,30,11.70
2018,08,20,05,31,11.70
2018,08,20,05,32,11.70
2018,08,20,05,33,11.70
2018,08,20,05,34,11.70
2018,08,20,05,35,11.70
2018,08,20,05,36,11.70
2018,08,20,05,37,11.60
2018,08,20,05,38,11.60
2018,08,20,05,39,11.60
2018,08,20,05,40,11.60
2018,08,20,05,41,11.60
2018,08,20,05,42,11.60
2018,08,20,05,43,11.50
2018,08,20,05,44,11.50
2018,08,20,05,45,11.50
2018,08,20,05,46,11.50
2018,08,20,05,47,11.50
2018,08,20,05,48,11.40
2018,08,20,05,49,11.40
2018,08,20,05,50,11.40
2018,08,20,05,51,11.40
2018,08,20,05,52,11.30
2018,08,20,05,53,11.30
2018,08,20,05,54,11.30
2018,08,20,05,55,11.30
2018,08,20,05,56,11.30
2018,08,20,05,57,11.30
2018,08,20,05,58,11.30
2018,08,20,05,59,11.30
2018,08,20,06,00,11.30
2018,08,20,06,01,11.30
2018,08,20,06,02,11.30
2018,08,20,06,03,11.30
2018,08,20,06,04,11.40
2018,08,20,06,05,11.40
2018,08,20,06,06,11.40
2018,08,20,06,07,11.40
2018,08,20,06,08,11.40
2018,08,20,06,09,11.40
2018,08,20,06,10,11.40
2018,08,20,06,11,11.40
2018,08,20,06,12,11.40
2018,08,20,06,13,11.40
2018,08,20,06,14,11.40
2018,08,20,06,15,11.40
2018,08,20,06,16,11.40
2018,08,20,06,17,11.40
2018,08,20,06,18,11.40
2018,08,20,06,19,11.30
2018,08,20,06,20,11.30
2018,08,20,06,21,11.30
2018,08,20,06,22,11.30
2018,08,20,06,23,11.30
2018,08,20,06,24,11.30
2018,08,20,06,25,11.30
2018,08,20,06,26,11.30
2018,08,20,06,27,11.30
2018,08,20,06,28,11.30
2018,08,20,06,29,11.30
2018,08,20,06,30,11.30
2018,08,20,06,31,11.30
2018,08,20,06,32,11.30
2018,08,20,06,33,11.30
2018,08,20,06,34,11.30
2018,08,20,06,35,11.30
2018,08,20,06,36,11.40
2018,08,20,06,37,11.40
2018,08,20,06,38,11.40
2018,08,20,06,39,11.40
2018,08,20,06,40,11.40
2018,08,20,06,41,11.40
2018,08,20,06,42,11.50
2018,08,20,06,43,11.40
2018,08,20,06,44,11.40
2018,08,20,06,45,11.40
2018,08,20,06,46,11.40
2018,08,20,06,47,11.40
2018,08,20,06,48,11.40
2018,08,20,06,49,11.40
2018,08,20,06,50,11.40
2018,08,20,06,51,11.40
2018,08,20,06,52,11.40
2018,08,20,06,53,11.40
2018,08,20,06,54,11.40
2018,08,20,06,55,11.40
2018,08,20,06,56,11.40
2018,08,20,06,57,11.40
2018,08,20,06,58,11.40
2018,08,20,06,59,11.40
2018,08,20,07,00,11.40
2018,08,20,07,01,11.50
2018,08,20,07,02,11.50
2018,08,20,07,03,11.50
2018,08,20,07,04,11.50
2018,08,20,07,05,11.50
2018,08,20,07,06,11.50
2018,08,20,07,07,11.50
2018,08,20,07,08,11.50
2018,08,20,07,09,11.50
2018,08,20,07,10,11.50
2018,08,20,07,11,11.50
2018,08,20,07,12,11.50
2018,08,20,07,13,11.50
2018,08,20,07,14,11.60
2018,08,20,07,15,11.60
2018,08,20,07,16,11.60
2018,08,20,07,17,11.70
2018,08,20,07,18,11.70
2018,08,20,07,19,11.70
2018,08,20,07,20,11.70
2018,08,20,07,21,11.80
2018,08,20,07,22,11.80
2018,08,20,07,23,11.80
2018,08,20,07,24,11.80
2018,08,20,07,25,11.80
2018,08,20,07,26,11.80
2018,08,20,07,27,11.80
2018,08,20,07,28,11.80
2018,08,20,07,29,11.80
2018,08,20,07,30,11.90
2018,08,20,07,31,11.90
2018,08,20,07,32,11.90
2018,08,20,07,33,11.90
2018,08,20,07,34,11.90
2018,08,20,07,35,12.00
2018,08,20,07,36,12.00
2018,08,20,07,37,12.10
2018,08,20,07,38,12.10
2018,08,20,07,39,12.20
2018,08,20,07,40,12.20
2018,08,20,07,41,12.20
2018,08,20,07,42,12.20
2018,08,20,07,43,12.20
2018,08,20,07,44,12.20
2018,08,20,07,45,12.20
2018,08,20,07,46,12.20
2018,08,20,07,47,12.20
2018,08,20,07,48,12.20
2018,08,20,07,49,12.20
2018,08,20,07,50,12.20
2018,08,20,07,51,12.20
2018,08,20,07,52,12.30
2018,08,20,07,53,12.30
2018,08,20,07,54,12.30
2018,08,20,07,55,12.30
2018,08,20,07,56,12.30
2018,08,20,07,57,12.30
2018,08,20,07,58,12.30
2018,08,20,07,59,12.30
2018,08,20,08,00,12.30
2018,08,20,08,01,12.30
2018,08,20,08,02,12.30
2018,08,20,08,03,12.30
2018,08,20,08,04,12.40
2018,08,20,08,05,12.40
2018,08,20,08,06,12.40
2018,08,20,08,07,12.50
2018,08,20,08,08,12.50
2018,08,20,08,09,12.50
2018,08,20,08,10,12.60
2018,08,20,08,11,12.70
2018,08,20,08,12,12.70
2018,08,20,08,13,12.80
2018,08,20,08,14,12.80
2018,08,20,08,15,12.80
2018,08,20,08,16,12.80
2018,08,20,08,17,12.80
2018,08,20,08,18,12.90
2018,08,20,08,19,12.90
2018,08,20,08,20,12.90
2018,08,20,08,21,12.90
2018,08,20,08,22,12.90
2018,08,20,08,23,13.00
2018,08,20,08,24,13.00
2018,08,20,08,25,13.00
2018,08,20,08,26,13.10
2018,08,20,08,27,13.10
2018,08,20,08,28,13.10
2018,08,20,08,29,13.20
2018,08,20,08,30,13.20
2018,08,20,08,31,13.30
2018,08,20,08,32,13.30
2018,08,20,08,33,13.30
2018,08,20,08,34,13.40
2018,08,20,08,35,13.40
2018,08,20,08,36,13.40
2018,08,20,08,37,13.50
2018,08,20,08,38,13.60
2018,08,20,08,39,13.60
2018,08,20,08,40,13.60
2018,08,20,08,41,13.60
2018,08,20,08,42,13.70
2018,08,20,08,43,13.70
2018,08,20,08,44,13.80
2018,08,20,08,45,13.80
2018,08,20,08,46,13.80
2018,08,20,08,47,13.90
2018,08,20,08,48,14.00
2018,08,20,08,49,14.00
2018,08,20,08,50,14.10
2018,08,20,08,51,14.20
2018,08,20,08,52,14.30
2018,08,20,08,53,14.40
2018,08,20,08,54,14.50
2018,08,20,08,55,14.50
2018,08,20,08,56,14.60
2018,08,20,08,57,14.70
2018,08,20,08,58,14.80
2018,08,20,08,59,14.80
2018,08,20,09,00,14.90
2018,08,20,09,01,14.90
2018,08,20,09,02,15.00
2018,08,20,09,03,15.00
2018,08,20,09,04,15.10
2018,08,20,09,05,15.20
2018,08,20,09,06,15.20
2018,08,20,09,07,15.30
2018,08,20,09,08,15.30
2018,08,20,09,09,15.40
2018,08,20,09,10,15.50
2018,08,20,09,11,15.60
2018,08,20,09,12,15.60
2018,08,20,09,13,15.70
2018,08,20,09,14,15.80
2018,08,20,09,15,15.80
2018,08,20,09,16,15.90
2018,08,20,09,17,16.00
2018,08,20,09,18,16.00
2018,08,20,09,19,16.10
2018,08,20,09,20,16.20
2018,08,20,09,21,16.30
2018,08,20,09,22,16.30
2018,08,20,09,23,16.40
2018,08,20,09,24,16.50
2018,08,20,09,25,16.60
2018,08,20,09,26,16.70
2018,08,20,09,27,16.80
2018,08,20,09,28,16.90
2018,08,20,09,29,17.00
2018,08,20,09,30,17.10
2018,08,20,09,31,17.10
2018,08,20,09,32,17.20
2018,08,20,09,33,17.20
2018,08,20,09,34,17.40
2018,08,20,09,35,17.50
2018,08,20,09,36,17.50
2018,08,20,09,37,17.60
2018,08,20,09,38,17.70
2018,08,20,09,39,17.80
2018,08,20,09,40,17.90
2018,08,20,09,41,18.00
2018,08,20,09,42,18.00
2018,08,20,09,43,18.10
2018,08,20,09,44,18.20
2018,08,20,09,45,18.30
2018,08,20,09,46,18.30
2018,08,20,09,47,18.40
2018,08,20,09,48,18.50
2018,08,20,09,49,18.60
2018,08,20,09,50,18.60
2018,08,20,09,51,18.70
2018,08,20,09,52,18.70
2018,08,20,09,53,18.80
2018,08,20,09,54,18.90
2018,08,20,09,55,18.90
2018,08,20,09,56,19.00
2018,08,20,09,57,19.00
2018,08,20,09,58,19.10
2018,08,20,09,59,19.20
2018,08,20,10,00,19.20
2018,08,20,10,01,19.30
2018,08,20,10,02,19.30
2018,08,20,10,03,19.30
2018,08,20,10,04,19.40
2018,08,20,10,05,19.50
2018,08,20,10,06,19.50
2018,08,20,10,07,19.60
2018,08,20,10,08,19.70
2018,08,20,10,09,19.70
2018,08,20,10,10,19.80
2018,08,20,10,11,19.80
2018,08,20,10,12,19.80
2018,08,20,10,13,19.90
2018,08,20,10,14,20.00
2018,08,20,10,15,20.00
2018,08,20,10,16,20.10
2018,08,20,10,17,20.20
2018,08,20,10,18,20.20
2018,08,20,10,19,20.30
2018,08,20,10,20,20.30
2018,08,20,10,21,20.40
2018,08,20,10,22,20.40
2018,08,20,10,23,20.50
2018,08,20,10,24,20.60
2018,08,20,10,25,20.70
2018,08,20,10,26,20.80
2018,08,20,10,27,20.80
2018,08,20,10,28,20.90
2018,08,20,10,29,20.90
2018,08,20,10,30,21.00
2018,08,20,10,31,21.10
2018,08,20,10,32,21.10
2018,08,20,10,33,21.20
2018,08,20,10,34,21.20
2018,08,20,10,35,21.30
2018,08,20,10,36,21.30
2018,08,20,10,37,21.40
2018,08,20,10,38,21.40
2018,08,20,10,39,21.50
2018,08,20,10,40,21.60
2018,08,20,10,41,21.60
2018,08,20,10,42,21.70
2018,08,20,10,43,21.80
2018,08,20,10,44,21.80
2018,08,20,10,45,21.90
2018,08,20,10,46,22.00
2018,08,20,10,47,22.10
2018,08,20,10,48,22.20
2018,08,20,10,49,22.20
2018,08,20,10,50,22.30
2018,08,20,10,51,22.40
2018,08,20,10,52,22.50
2018,08,20,10,53,22.60
2018,08,20,10,54,22.70
2018,08,20,10,55,22.80
2018,08,20,10,56,22.80
2018,08,20,10,57,22.90
2018,08,20,10,58,22.90
2018,08,20,10,59,23.00
2018,08,20,11,00,23.00
2018,08,20,11,01,23.10
2018,08,20,11,02,23.20
2018,08,20,11,03,23.20
2018,08,20,11,04,23.30
2018,08,20,11,05,23.30
2018,08,20,11,06,23.40
2018,08,20,11,07,23.40
2018,08,20,11,08,23.50
2018,08,20,11,09,23.60
2018,08,20,11,10,23.60
2018,08,20,11,11,23.70
2018,08,20,11,12,23.70
2018,08,20,11,13,23.80
2018,08,20,11,14,23.80
2018,08,20,11,15,23.90
2018,08,20,11,16,23.90
2018,08,20,11,17,24.00
2018,08,20,11,18,24.00
2018,08,20,11,19,24.10
2018,08,20,11,20,24.10
2018,08,20,11,21,24.20
2018,08,20,11,22,24.20
2018,08,20,11,23,24.30
2018,08,20,11,24,24.30
2018,08,20,11,25,24.40
2018,08,20,11,26,24.50
2018,08,20,11,27,24.50
2018,08,20,11,28,24.60
2018,08,20,11,29,24.70
2018,08,20,11,30,24.70
2018,08,20,11,31,24.80
2018,08,20,11,32,24.80
2018,08,20,11,33,24.80
2018,08,20,11,34,24.80
2018,08,20,11,35,24.90
2018,08,20,11,36,24.90
2018,08,20,11,37,25.00
2018,08,20,11,38,25.00
2018,08,20,11,39,25.10
2018,08,20,11,40,25.10
2018,08,20,11,41,25.20
2018,08,20,11,42,25.20
2018,08,20,11,43,25.20
2018,08,20,11,44,25.30
2018,08,20,11,45,25.30
2018,08,20,11,46,25.40
2018,08,20,11,47,25.40
2018,08,20,11,48,25.40
2018,08,20,11,49,25.50
2018,08,20,11,50,25.50
2018,08,20,11,51,25.60
2018,08,20,11,52,25.60
2018,08,20,11,53,25.70
2018,08,20,11,54,25.70
2018,08,20,11,55,25.70
2018,08,20,11,56,25.80
2018,08,20,11,57,25.80
2018,08,20,11,58,25.80
2018,08,20,11,59,25.90
2018,08,20,12,00,26.00
2018,08,20,12,01,26.00
2018,08,20,12,02,26.10
2018,08,20,12,03,26.10
2018,08,20,12,04,26.20
2018,08,20,12,05,26.30
2018,08,20,12,06,26.30
2018,08,20,12,07,26.40
2018,08,20,12,08,26.40
2018,08,20,12,09,26.40
2018,08,20,12,10,26.50
2018,08,20,12,11,26.60
2018,08,20,12,12,26.60
2018,08,20,12,13,26.70
2018,08,20,12,14,26.70
2018,08,20,12,15,26.70
2018,08,20,12,16,26.80
2018,08,20,12,17,26.80
2018,08,20,12,18,26.90
2018,08,20,12,19,27.00
2018,08,20,12,20,27.00
2018,08,20,12,21,27.10
2018,08,20,12,22,27.10
2018,08,20,12,23,27.20
2018,08,20,12,24,27.20
2018,08,20,12,25,27.20
2018,08,20,12,26,27.20
2018,08,20,12,27,27.20
2018,08,20,12,28,27.20
2018,08,20,12,29,27.20
2018,08,20,12,30,27.20
2018,08,20,12,31,27.30
2018,08,20,12,32,27.30
2018,08,20,12,33,27.30
2018,08,20,12,34,27.30
2018,08,20,12,35,27.30
2018,08,20,12,36,27.30
2018,08,20,12,37,27.30
2018,08,20,12,38,27.40
2018,08,20,12,39,27.40
2018,08,20,12,40,27.40
2018,08,20,12,41,27.40
2018,08,20,12,42,27.40
2018,08,20,12,43,27.40
2018,08,20,12,44,27.40
2018,08,20,12,45,27.40
2018,08,20,12,46,27.40
2018,08,20,12,47,27.30
2018,08,20,12,48,27.30
2018,08,20,12,49,27.30
2018,08,20,12,50,27.30
2018,08,20,12,51,27.30
2018,08,20,12,52,27.40
2018,08,20,12,53,27.40
2018,08,20,12,54,27.50
2018,08,20,12,55,27.50
2018,08,20,12,56,27.60
2018,08,20,12,57,27.70
2018,08,20,12,58,27.80
2018,08,20,12,59,27.80
2018,08,20,13,00,27.80
2018,08,20,13,01,27.80
2018,08,20,13,02,27.90
2018,08,20,13,03,27.90
2018,08,20,13,04,28.00
2018,08,20,13,05,28.10
2018,08,20,13,06,28.20
2018,08,20,13,07,28.30
2018,08,20,13,08,28.30
2018,08,20,13,09,28.30
2018,08,20,13,10,28.30
2018,08,20,13,11,28.40
2018,08,20,13,12,28.40
2018,08,20,13,13,28.40
2018,08,20,13,14,28.40
2018,08,20,13,15,28.40
2018,08,20,13,16,28.40
2018,08,20,13,17,28.40
2018,08,20,13,18,28.50
2018,08,20,13,19,28.60
2018,08,20,13,20,28.70
2018,08,20,13,21,28.80
2018,08,20,13,22,28.90
2018,08,20,13,23,29.00
2018,08,20,13,24,29.00
2018,08,20,13,25,29.10
2018,08,20,13,26,29.20
2018,08,20,13,27,29.20
2018,08,20,13,28,29.20
2018,08,20,13,29,29.30
2018,08,20,13,30,29.30
2018,08,20,13,31,29.30
2018,08,20,13,32,29.30
2018,08,20,13,33,29.30
2018,08,20,13,34,29.40
2018,08,20,13,35,29.40
2018,08,20,13,36,29.50
2018,08,20,13,37,29.50
2018,08,20,13,38,29.60
2018,08,20,13,39,29.60
2018,08,20,13,40,29.70
2018,08,20,13,41,29.70
2018,08,20,13,42,29.70
2018,08,20,13,43,29.70
2018,08,20,13,44,29.70
2018,08,20,13,45,29.70
2018,08,20,13,46,29.70
2018,08,20,13,47,29.70
2018,08,20,13,48,29.70
2018,08,20,13,49,29.70
2018,08,20,13,50,29.70
2018,08,20,13,51,29.80
2018,08,20,13,52,29.80
2018,08,20,13,53,29.90
2018,08,20,13,54,29.90
2018,08,20,13,55,29.90
2018,08,20,13,56,29.90
2018,08,20,13,57,29.80
2018,08,20,13,58,29.80
2018,08,20,13,59,29.80
2018,08,20,14,00,29.80
2018,08,20,14,01,29.70
2018,08,20,14,02,29.70
2018,08,20,14,03,29.70
2018,08,20,14,04,29.70
2018,08,20,14,05,29.70
2018,08,20,14,06,29.70
2018,08,20,14,07,29.70
2018,08,20,14,08,29.70
2018,08,20,14,09,29.70
2018,08,20,14,10,29.70
2018,08,20,14,11,29.70
2018,08,20,14,12,29.70
2018,08,20,14,13,29.80
2018,08,20,14,14,29.80
2018,08,20,14,15,29.90
2018,08,20,14,16,29.90
2018,08,20,14,17,30.00
2018,08,20,14,18,30.10
2018,08,20,14,19,30.20
2018,08,20,14,20,30.20
2018,08,20,14,21,30.20
2018,08,20,14,22,30.20
2018,08,20,14,23,30.30
2018,08,20,14,24,30.30
2018,08,20,14,25,30.30
2018,08,20,14,26,30.40
2018,08,20,14,27,30.40
2018,08,20,14,28,30.40
2018,08,20,14,29,30.30
2018,08,20,14,30,30.30
2018,08,20,14,31,30.30
2018,08,20,14,32,30.30
2018,08,20,14,33,30.30
2018,08,20,14,34,30.40
2018,08,20,14,35,30.40
2018,08,20,14,36,30.40
2018,08,20,14,37,30.50
2018,08,20,14,38,30.40
2018,08,20,14,39,30.40
2018,08,20,14,40,30.40
2018,08,20,14,41,30.40
2018,08,20,14,42,30.50
2018,08,20,14,43,30.50
2018,08,20,14,44,30.60
2018,08,20,14,45,30.60
2018,08,20,14,46,30.70
2018,08,20,14,47,30.70
2018,08,20,14,48,30.70
2018,08,20,14,49,30.70
2018,08,20,14,50,30.70
2018,08,20,14,51,30.70
2018,08,20,14,52,30.70
2018,08,20,14,53,30.70
2018,08,20,14,54,30.70
2018,08,20,14,55,30.80
2018,08,20,14,56,30.80
2018,08,20,14,57,30.90
2018,08,20,14,58,30.90
2018,08,20,14,59,30.90
2018,08,20,15,00,31.00
2018,08,20,15,01,31.10
2018,08,20,15,02,31.10
2018,08,20,15,03,31.10
2018,08,20,15,04,31.10
2018,08,20,15,05,31.00
2018,08,20,15,06,31.00
2018,08,20,15,07,31.00
2018,08,20,15,08,31.00
2018,08,20,15,09,31.10
2018,08,20,15,10,31.10
2018,08,20,15,11,31.10
2018,08,20,15,12,31.20
2018,08,20,15,13,31.10
2018,08,20,15,14,31.10
2018,08,20,15,15,31.10
2018,08,20,15,16,31.10
2018,08,20,15,17,31.20
2018,08,20,15,18,31.10
2018,08,20,15,19,31.10
2018,08,20,15,20,31.10
2018,08,20,15,21,31.10
2018,08,20,15,22,31.20
2018,08,20,15,23,31.20
2018,08,20,15,24,31.20
2018,08,20,15,25,31.20
2018,08,20,15,26,31.30
2018,08,20,15,27,31.30
2018,08,20,15,28,31.30
2018,08,20,15,29,31.30
2018,08,20,15,30,31.40
2018,08,20,15,31,31.40
2018,08,20,15,32,31.40
2018,08,20,15,33,31.50
2018,08,20,15,34,31.50
2018,08,20,15,35,31.50
2018,08,20,15,36,31.50
2018,08,20,15,37,31.50
2018,08,20,15,38,31.50
2018,08,20,15,39,31.50
2018,08,20,15,40,31.50
2018,08,20,15,41,31.50
2018,08,20,15,42,31.50
2018,08,20,15,43,31.50
2018,08,20,15,44,31.50
2018,08,20,15,45,31.40
2018,08,20,15,46,31.40
2018,08,20,15,47,31.30
2018,08,20,15,48,31.30
2018,08,20,15,49,31.20
2018,08,20,15,50,31.20
2018,08,20,15,51,31.20
2018,08,20,15,52,31.30
2018,08,20,15,53,31.30
2018,08,20,15,54,31.40
2018,08,20,15,55,31.50
2018,08,20,15,56,31.60
2018,08,20,15,57,31.70
2018,08,20,15,58,31.70
2018,08,20,15,59,31.70
2018,08,20,16,00,31.80
2018,08,20,16,01,31.80
2018,08,20,16,02,31.80
2018,08,20,16,03,31.80
2018,08,20,16,04,31.90
2018,08,20,16,05,31.90
2018,08,20,16,06,31.90
2018,08,20,16,07,31.90
2018,08,20,16,08,31.90
2018,08,20,16,09,31.90
2018,08,20,16,10,31.80
2018,08,20,16,11,31.80
2018,08,20,16,12,31.80
2018,08,20,16,13,31.80
2018,08,20,16,14,31.80
2018,08,20,16,15,31.80
2018,08,20,16,16,31.80
2018,08,20,16,17,31.90
2018,08,20,16,18,31.90
2018,08,20,16,19,32.00
2018,08,20,16,20,32.00
2018,08,20,16,21,32.00
2018,08,20,16,22,32.10
2018,08,20,16,23,32.10
2018,08,20,16,24,32.10
2018,08,20,16,25,32.10
2018,08,20,16,26,32.20
2018,08,20,16,27,32.20
2018,08,20,16,28,32.20
2018,08,20,16,29,32.20
2018,08,20,16,30,32.20
2018,08,20,16,31,32.20
2018,08,20,16,32,32.30
2018,08,20,16,33,32.30
2018,08,20,16,34,32.30
2018,08,20,16,35,32.30
2018,08,20,16,36,32.30
2018,08,20,16,37,32.30
2018,08,20,16,38,32.30
2018,08,20,16,39,32.30
2018,08,20,16,40,32.30
2018,08,20,16,41,32.30
2018,08,20,16,42,32.30
2018,08,20,16,43,32.30
2018,08,20,16,44,32.30
2018,08,20,16,45,32.30
2018,08,20,16,46,32.30
2018,08,20,16,47,32.20
2018,08,20,16,48,32.20
2018,08,20,16,49,32.20
2018,08,20,16,50,32.20
2018,08,20,16,51,32.20
2018,08,20,16,52,32.20
2018,08,20,16,53,32.20
2018,08,20,16,54,32.20
2018,08,20,16,55,32.30
2018,08,20,16,56,32.30
2018,08,20,16,57,32.20
2018,08,20,16,58,32.20
2018,08,20,16,59,32.20
2018,08,20,17,00,32.20
2018,08,20,17,01,32.20
2018,08,20,17,02,32.20
2018,08,20,17,03,32.20
2018,08,20,17,04,32.20
2018,08,20,17,05,32.20
2018,08,20,17,06,32.20
2018,08,20,17,07,32.30
2018,08,20,17,08,32.30
2018,08,20,17,09,32.30
2018,08,20,17,10,32.30
2018,08,20,17,11,32.30
2018,08,20,17,12,32.30
2018,08,20,17,13,32.30
2018,08,20,17,14,32.20
2018,08,20,17,15,32.20
2018,08,20,17,16,32.10
2018,08,20,17,17,32.00
2018,08,20,17,18,32.00
2018,08,20,17,19,31.90